TimeCDT,TemperatureF,Dew PointF,Humidity,Sea Level PressureIn,VisibilityMPH,Wind Direction,Wind SpeedMPH,Gust SpeedMPH,PrecipitationIn,Events,Conditions,WindDirDegrees,DateUTC
12:41 AM,66.2,64.4,94,29.89,1.8,Calm,Calm,-,N/A,,Clear,0,2013-08-06 05:41:00
12:52 AM,66.9,66.0,97,29.86,1.5,NNE,3.5,-,N/A,,Clear,20,2013-08-06 05:52:00
12:55 AM,66.2,66.2,100,29.88,4.0,Calm,Calm,-,N/A,,Clear,0,2013-08-06 05:55:00
1:16 AM,62.6,62.6,100,29.88,1.5,Calm,Calm,-,N/A,,Clear,0,2013-08-06 06:16:00
1:25 AM,64.4,62.6,94,29.88,0.8,South,5.8,-,N/A,,Scattered Clouds,180,2013-08-06 06:25:00
1:31 AM,64.4,64.4,100,29.89,2.0,South,3.5,-,N/A,,Mostly Cloudy,180,2013-08-06 06:31:00
1:36 AM,64.4,64.4,100,29.88,1.5,SSE,4.6,-,N/A,,Mostly Cloudy,160,2013-08-06 06:36:00
1:52 AM,66.0,66.0,100,29.87,1.0,South,3.5,-,N/A,,Mostly Cloudy,170,2013-08-06 06:52:00
2:04 AM,66.2,64.4,94,29.89,0.8,Calm,Calm,-,N/A,,Mist,0,2013-08-06 07:04:00
2:09 AM,66.2,66.2,100,29.89,1.0,Calm,Calm,-,N/A,,Mostly Cloudy,0,2013-08-06 07:09:00
2:13 AM,66.2,66.2,100,29.89,3.0,Calm,Calm,-,N/A,,Mostly Cloudy,0,2013-08-06 07:13:00
2:52 AM,64.9,64.0,97,29.85,7.0,Calm,Calm,-,N/A,,Scattered Clouds,0,2013-08-06 07:52:00
3:21 AM,62.6,62.6,100,29.86,1.8,Calm,Calm,-,N/A,,Partly Cloudy,0,2013-08-06 08:21:00
3:30 AM,62.6,62.6,100,29.86,0.5,Calm,Calm,-,N/A,Fog,Fog,0,2013-08-06 08:30:00
3:37 AM,62.6,62.6,100,29.86,0.8,Calm,Calm,-,N/A,,Mist,0,2013-08-06 08:37:00
3:47 AM,62.6,62.6,100,29.86,1.2,Calm,Calm,-,N/A,,Partly Cloudy,0,2013-08-06 08:47:00
3:50 AM,62.6,62.6,100,29.86,0.8,NNW,3.5,-,N/A,,Mist,330,2013-08-06 08:50:00
3:52 AM,62.1,62.1,100,29.84,0.5,NNW,3.5,-,N/A,Fog,Fog,330,2013-08-06 08:52:00
4:00 AM,62.6,62.6,100,29.86,1.0,NNW,4.6,-,N/A,,Mist,330,2013-08-06 09:00:00
4:02 AM,62.6,62.6,100,29.86,2.0,NNW,4.6,-,N/A,,Mostly Cloudy,330,2013-08-06 09:02:00
4:11 AM,64.4,64.4,100,29.87,1.0,NW,3.5,-,N/A,,Mostly Cloudy,310,2013-08-06 09:11:00
4:22 AM,64.4,64.4,100,29.87,0.8,WSW,4.6,-,N/A,,Overcast,250,2013-08-06 09:22:00
4:35 AM,64.4,64.4,100,29.87,1.8,NNW,5.8,-,N/A,,Mostly Cloudy,340,2013-08-06 09:35:00
4:39 AM,64.4,64.4,100,29.86,3.0,NNW,5.8,-,N/A,,Mostly Cloudy,340,2013-08-06 09:39:00
4:52 AM,64.9,64.0,97,29.83,7.0,North,3.5,-,N/A,,Scattered Clouds,360,2013-08-06 09:52:00
5:12 AM,62.6,62.6,100,29.84,1.8,Calm,Calm,-,N/A,,Clear,0,2013-08-06 10:12:00
5:19 AM,62.6,62.6,100,29.83,0.5,Calm,Calm,-,N/A,Fog,Fog,0,2013-08-06 10:19:00
5:30 AM,62.6,62.6,100,29.84,0.2,Calm,Calm,-,N/A,Fog,Fog,0,2013-08-06 10:30:00
5:38 AM,62.6,62.6,100,29.84,0.5,Calm,Calm,-,N/A,Fog,Fog,0,2013-08-06 10:38:00
5:52 AM,63.0,63.0,100,29.82,0.5,Calm,Calm,-,N/A,Fog,Fog,0,2013-08-06 10:52:00
6:12 AM,64.4,62.6,94,29.87,2.0,WSW,5.8,-,N/A,,Mist,240,2013-08-06 11:12:00
6:19 AM,64.4,62.6,94,29.88,4.0,WSW,3.5,-,N/A,,Scattered Clouds,250,2013-08-06 11:19:00
6:52 AM,64.9,64.9,100,29.88,5.0,WSW,6.9,-,N/A,Thunderstorm,Scattered Clouds,250,2013-08-06 11:52:00
7:10 AM,66.2,64.4,94,29.90,6.0,Calm,Calm,-,0.00,Rain,Light Rain,0,2013-08-06 12:10:00
7:52 AM,66.0,66.0,100,29.89,6.0,NNW,3.5,-,0.01,Rain,Light Rain,330,2013-08-06 12:52:00
8:52 AM,68.0,66.0,93,29.88,8.0,West,3.5,-,0.01,Rain,Light Rain,270,2013-08-06 13:52:00
9:52 AM,72.0,69.1,91,29.80,10.0,South,11.5,-,0.00,,Clear,170,2013-08-06 14:52:00
10:52 AM,78.1,69.1,74,29.77,10.0,South,10.4,-,N/A,,Clear,190,2013-08-06 15:52:00
11:52 AM,81.0,64.9,58,29.78,10.0,SSW,11.5,20.7,N/A,,Clear,200,2013-08-06 16:52:00
12:52 PM,81.0,68.0,65,29.80,10.0,SW,4.6,-,N/A,,Clear,230,2013-08-06 17:52:00
1:52 PM,84.9,68.0,57,29.81,10.0,West,5.8,-,N/A,,Clear,280,2013-08-06 18:52:00
2:52 PM,86.0,68.0,55,29.81,10.0,West,4.6,-,N/A,,Clear,280,2013-08-06 19:52:00
3:52 PM,84.9,66.9,55,29.81,10.0,WSW,4.6,-,N/A,,Clear,240,2013-08-06 20:52:00
4:52 PM,86.0,69.1,57,29.80,10.0,West,6.9,-,N/A,,Clear,260,2013-08-06 21:52:00
5:52 PM,84.9,69.1,59,29.79,10.0,WSW,4.6,-,N/A,,Clear,240,2013-08-06 22:52:00
6:52 PM,84.0,71.1,65,29.78,10.0,Calm,Calm,-,N/A,,Clear,0,2013-08-06 23:52:00
7:52 PM,82.0,71.1,69,29.78,10.0,West,4.6,-,N/A,,Partly Cloudy,270,2013-08-07 00:52:00
8:52 PM,75.9,71.1,85,29.80,10.0,NW,4.6,-,N/A,,Clear,310,2013-08-07 01:52:00
9:52 PM,73.9,70.0,87,29.82,10.0,WNW,4.6,-,N/A,,Clear,290,2013-08-07 02:52:00
10:52 PM,72.0,68.0,87,29.83,10.0,Calm,Calm,-,N/A,,Clear,0,2013-08-07 03:52:00
11:52 PM,71.1,68.0,90,29.83,10.0,Calm,Calm,-,N/A,,Clear,0,2013-08-07 04:52:00